[[{"header":{"parameterUnit":"m.s-1","parameterCategory":1,"la1":30.2991,"la2":30.254,"lo1":-89.0895,"lo2":-89.0444,"dy":0.0017,"dx":0.0017,"nx":28,"ny":28,"refTime":"2024-05-20T03:00:00:Z","depth":0,"parameterNumber":2,"parameterNumberName":"U-component_of_WINDS"},"data":[0,0,0,0,0,0,0,0,0,0,0,0,0,0,0,0,0,0,0,0,0,0,0,0,0,0,0,0,0,0,0,0,0,0,0,0,0,0,0,0,0,0,0,0,0,0,0,0,0,0,0,0,0,0,0,0,0,0,-3.121,-3.121,0,-3.119,-3.119,-3.119,-3.1158,-3.1158,-3.1157,-3.1156,-3.1137,-3.1137,-3.1137,0,0,0,0,0,0,0,0,0,0,0,0,0,-3.1225,-3.1224,-3.1211,-3.121,-3.121,-3.119,-3.119,-3.119,-3.1158,-3.1158,-3.1157,-3.1156,-3.1137,-3.1137,-3.1137,0,0,0,0,0,0,0,0,0,0,0,0,0,-3.1213,-3.1224,-3.1211,-3.1192,-3.119,-3.119,-3.119,-3.119,-3.1158,-3.1157,-3.1157,-3.1156,-3.1137,-3.1137,-3.1137,-3.1154,0,0,-3.1137,-3.1137,0,0,0,0,0,0,0,0,-3.1214,-3.1212,-3.1195,-3.1193,-3.1191,-3.1176,-3.1188,-3.1178,-3.1159,-3.117,-3.1156,-3.1155,-3.1151,-3.1149,-3.1148,-3.1153,-3.1152,-3.1137,-3.1137,-3.1137,-3.1137,0,0,0,0,0,0,0,-3.1214,-3.1213,-3.1202,-3.1195,-3.1192,-3.1185,-3.1183,-3.1186,-3.1166,-3.1169,-3.1167,-3.1165,-3.1149,-3.1148,-3.1147,-3.1152,-3.1137,-3.1137,-3.1137,-3.1137,-3.1173,-3.1174,0,0,0,0,0,0,-3.1218,-3.1214,-3.1203,-3.1202,-3.12,-3.1186,-3.1183,-3.1182,-3.1165,-3.1162,-3.1166,-3.1164,-3.1148,-3.1147,-3.1146,-3.1167,-3.1137,-3.1137,-3.1137,-3.1173,-3.1174,-3.1175,0,0,0,0,0,0,-3.1218,-3.1217,-3.1204,-3.1207,-3.1205,-3.1186,-3.1185,-3.1182,-3.118,-3.1163,-3.1159,-3.1167,-3.1147,-3.1146,-3.1153,-3.1165,-3.1137,-3.1137,-3.1171,-3.1173,-3.1174,-3.1207,0,0,0,0,0,0,-3.1219,-3.1217,-3.1223,-3.1208,-3.1205,-3.121,-3.1186,-3.1182,-3.118,-3.1177,-3.1163,-3.116,-3.1146,-3.1153,-3.1153,-3.1165,-3.1137,-3.117,-3.1172,-3.1174,-3.1205,-3.1209,-3.1213,0,0,0,0,0,-3.1219,-3.1233,-3.1223,-3.1222,-3.1212,-3.1211,-3.121,-3.1193,-3.1181,-3.1187,-3.1176,-3.1161,-3.1164,-3.1154,-3.1153,-3.1166,-3.1169,-3.1172,-3.1174,-3.1203,-3.1209,-3.1213,0,0,0,0,0,0,-3.125,-3.123,-3.122,-3.1228,-3.1222,-3.1206,-3.1213,-3.1199,-3.1196,-3.1193,-3.1174,-3.1171,-3.1181,-3.1174,-3.1163,-3.1183,-3.1164,-3.1167,-3.1187,-3.1192,-3.1196,-3.1198,-3.1137,0,0,0,0,0,-3.1258,-3.1258,-3.1241,-3.1251,-3.1248,-3.1231,-3.123,-3.1218,-3.1211,-3.1208,-3.1197,-3.1191,-3.1191,-3.1191,-3.119,-3.1204,-3.1201,-3.1212,-3.1217,-3.122,-3.1223,-3.1231,-3.1237,-3.1182,-3.1182,-3.1182,0,0,-3.1274,-3.1263,-3.1265,-3.1257,-3.125,-3.1252,-3.1229,-3.1231,-3.1233,-3.1208,-3.1214,-3.1207,-3.1199,-3.121,-3.1214,-3.1204,-3.1237,-3.1223,-3.1226,-3.1226,-3.1234,-3.1239,-3.1244,-3.1183,-3.1183,-3.1183,0,0,-3.1304,-3.1295,-3.1303,-3.1297,-3.1288,-3.1277,-3.1279,-3.1265,-3.126,-3.1265,-3.1247,-3.125,-3.1249,-3.1244,-3.1242,-3.1274,-3.126,-3.1274,-3.1296,-3.1305,-3.131,-3.1313,-3.1326,-3.1331,-3.1276,-3.1276,-3.1276,0,-3.1325,-3.1327,-3.1309,-3.1313,-3.1311,-3.1289,-3.1298,-3.1293,-3.1284,-3.1283,-3.1273,-3.1273,-3.1266,-3.1276,-3.1284,-3.1283,-3.1286,-3.1275,-3.131,-3.1314,-3.1317,-3.1329,-3.1334,-3.1278,-3.1278,-3.1277,-3.1277,0,-3.1354,-3.1356,-3.1363,-3.1355,-3.1354,-3.1361,-3.1345,-3.1346,-3.1335,-3.1326,-3.1333,-3.1324,-3.1321,-3.1323,-3.1312,-3.1333,-3.1327,-3.1314,-3.1295,-3.1325,-3.1336,-3.134,-3.1281,-3.128,-3.1279,-3.1279,0,0,-3.1402,-3.1385,-3.1388,-3.1385,-3.1374,-3.1376,-3.1382,-3.138,-3.1382,-3.1377,-3.1383,-3.1384,-3.1372,-3.137,-3.1358,-3.1366,-3.1393,-3.1351,-3.1351,-3.1361,-3.1418,-3.1429,-3.1434,-3.1384,-3.1385,-3.1385,-3.1419,0,-3.143,-3.144,-3.1425,-3.1438,-3.1441,-3.1421,-3.1427,-3.1421,-3.1413,-3.1415,-3.1406,-3.1408,-3.1392,-3.139,-3.1397,-3.1388,-3.1405,-3.1386,-3.1391,-3.1391,-3.1394,-3.1439,-3.145,-3.1482,-3.1423,-3.1424,-3.1424,0,-3.1465,-3.1462,-3.1476,-3.1466,-3.1466,-3.1471,-3.1469,-3.1471,-3.1465,-3.1459,-3.1457,-3.1444,-3.1451,-3.1433,-3.1443,-3.1431,-3.1432,-3.1429,-3.1429,-3.143,-3.1409,-3.1442,-3.1491,-3.1497,-3.143,-3.143,-3.1429,0,-3.15,-3.1499,-3.1508,-3.1506,-3.1494,-3.1499,-3.1494,-3.1487,-3.1488,-3.1486,-3.1486,-3.1486,-3.1485,-3.1486,-3.1473,-3.1461,-3.1486,-3.1466,-3.1482,-3.1483,-3.1488,-3.1488,-3.154,-3.1488,-3.1488,-3.1488,-3.1488,0,-3.1533,-3.1543,-3.1524,-3.1529,-3.154,-3.1524,-3.1535,-3.1528,-3.1523,-3.1528,-3.1511,-3.1516,-3.1498,-3.1502,-3.1493,-3.1504,-3.1503,-3.15,-3.1497,-3.1502,-3.1502,-3.1502,-3.15,-3.1489,-3.1489,-3.1489,-3.1489,0,-3.1574,-3.1561,-3.157,-3.1558,-3.1556,-3.1564,-3.1555,-3.1561,-3.1552,-3.1559,-3.1559,-3.1546,-3.155,-3.1538,-3.1539,-3.1533,-3.155,-3.1543,-3.1551,-3.155,-3.1567,-3.1566,-3.1621,-3.1628,-3.1571,-3.1572,-3.1572,0,-3.1596,-3.1603,-3.1593,-3.1595,-3.1592,-3.1595,-3.1595,-3.158,-3.1582,-3.1577,-3.1584,-3.1586,-3.1587,-3.1594,-3.1585,-3.1587,-3.1581,-3.16,-3.1581,-3.1586,-3.1583,-3.1583,-3.1584,-3.1604,-3.1605,-3.1605,-3.1606,0,-3.1638,-3.1632,-3.1633,-3.1633,-3.1634,-3.1633,-3.1631,-3.1634,-3.1618,-3.1621,-3.1624,-3.1625,-3.1628,-3.1631,-3.1631,-3.1627,-3.1615,-3.1612,-3.1616,-3.1621,-3.1626,-3.1625,-3.1563,-3.1611,-3.161,-3.161,-3.161,-3.161,-3.1671,-3.1677,-3.1672,-3.1674,-3.1671,-3.167,-3.1675,-3.1668,-3.167,-3.1671,-3.1662,-3.1668,-3.1665,-3.1664,-3.1662,-3.1667,-3.1658,-3.1664,-3.1665,-3.1667,-3.167,-3.1625,-3.1667,-3.1667,-3.1667,-3.1666,-3.1666,0,-3.1713,-3.1709,-3.1711,-3.171,-3.1712,-3.17,-3.1698,-3.1701,-3.1706,-3.1703,-3.1705,-3.1711,-3.1714,-3.1707,-3.1709,-3.1715,-3.171,-3.1717,-3.1716,-3.1716,-3.1677,-3.1674,-3.1721,-3.1721,-3.1721,-3.1721,-3.1721,-3.1721,-3.1735,-3.1745,-3.1739,-3.1749,-3.1744,-3.175,-3.175,-3.175,-3.1748,-3.1755,-3.1758,-3.1753,-3.1749,-3.1751,-3.1755,-3.1752,-3.1755,-3.1764,-3.176,-3.1724,-3.1719,-3.1713,-3.171,-3.1764,-3.1764,-3.1798,-3.1799,-3.1799]},{"header":{"parameterUnit":"m.s-1","parameterCategory":1,"la1":30.2991,"la2":30.254,"lo1":-89.0895,"lo2":-89.0444,"dy":0.0017,"dx":0.0017,"nx":28,"ny":28,"refTime":"2024-05-20T03:00:00:Z","depth":0,"parameterNumber":3,"parameterNumberName":"V-component_of_WINDS"},"data":[0,0,0,0,0,0,0,0,0,0,0,0,0,0,0,0,0,0,0,0,0,0,0,0,0,0,0,0,0,0,0,0,0,0,0,0,0,0,0,0,0,0,0,0,0,0,0,0,0,0,0,0,0,0,0,0,0,0,0.2146,0.2146,0,0.2186,0.2187,0.2187,0.2264,0.2266,0.2267,0.2269,0.2308,0.2308,0.2307,0,0,0,0,0,0,0,0,0,0,0,0,0,0.2135,0.2135,0.2146,0.2146,0.2147,0.2186,0.2187,0.2187,0.2264,0.2266,0.2268,0.2269,0.2308,0.2308,0.2307,0,0,0,0,0,0,0,0,0,0,0,0,0,0.2154,0.2135,0.2146,0.219,0.2194,0.2186,0.2187,0.2187,0.2264,0.2266,0.2268,0.227,0.2308,0.2308,0.2307,0.2259,0,0,0.2306,0.2305,0,0,0,0,0,0,0,0,0.2153,0.2154,0.2183,0.2187,0.2192,0.2223,0.2197,0.2211,0.2263,0.2237,0.2269,0.2271,0.2278,0.228,0.2282,0.2261,0.2262,0.2306,0.2305,0.2305,0.2305,0,0,0,0,0,0,0,0.2151,0.2153,0.2162,0.2183,0.2189,0.2208,0.2213,0.22,0.2244,0.224,0.2245,0.2249,0.2281,0.2283,0.2284,0.2263,0.2306,0.2305,0.2305,0.2305,0.2205,0.2202,0,0,0,0,0,0,0.2144,0.2151,0.2161,0.2163,0.2177,0.2206,0.2212,0.221,0.2245,0.2252,0.2247,0.2253,0.2283,0.2284,0.2286,0.2231,0.2305,0.2305,0.2304,0.2207,0.2204,0.2201,0,0,0,0,0,0,0.2143,0.2144,0.2159,0.2159,0.2162,0.2204,0.2202,0.221,0.2212,0.225,0.2258,0.2241,0.2284,0.2286,0.2265,0.2234,0.2304,0.2304,0.221,0.2206,0.2203,0.2122,0,0,0,0,0,0,0.2142,0.2143,0.2125,0.2158,0.2162,0.2138,0.22,0.2209,0.2211,0.2219,0.2247,0.2254,0.2286,0.2266,0.2265,0.2234,0.2303,0.2213,0.2208,0.2204,0.2128,0.2116,0.2106,0,0,0,0,0,0.2142,0.21,0.2123,0.2124,0.214,0.2136,0.2138,0.2177,0.2208,0.2191,0.2215,0.2253,0.2238,0.2263,0.2262,0.2231,0.2215,0.2209,0.2204,0.2132,0.2118,0.2107,0,0,0,0,0,0,0.2061,0.2105,0.2132,0.2099,0.2113,0.2149,0.2127,0.2161,0.2165,0.2172,0.222,0.2225,0.2198,0.2213,0.224,0.2187,0.2232,0.2227,0.2178,0.2165,0.2154,0.2151,0.2303,0,0,0,0,0,0.204,0.2033,0.2072,0.2039,0.2045,0.2085,0.2084,0.2113,0.2129,0.2135,0.2159,0.2173,0.2171,0.2169,0.217,0.2131,0.2138,0.2109,0.2099,0.209,0.2084,0.2065,0.2053,0.2184,0.2184,0.2184,0,0,0.1995,0.2018,0.2011,0.2024,0.2038,0.203,0.2089,0.2078,0.2072,0.2134,0.2115,0.2133,0.2152,0.2122,0.2109,0.2133,0.205,0.2083,0.2076,0.2075,0.2058,0.2046,0.2035,0.2181,0.2181,0.2182,0,0,0.1909,0.1926,0.1901,0.1915,0.1936,0.1964,0.1958,0.1989,0.2003,0.1986,0.2032,0.2026,0.2022,0.2034,0.2039,0.196,0.1995,0.1959,0.1903,0.1884,0.1874,0.1865,0.1836,0.1826,0.1954,0.1954,0.1953,0,0.1851,0.184,0.1884,0.187,0.1875,0.1932,0.1907,0.1918,0.1938,0.194,0.1966,0.1964,0.1981,0.1954,0.1935,0.1938,0.1932,0.1956,0.1872,0.1863,0.1856,0.1829,0.1818,0.1949,0.195,0.195,0.195,0,0.1767,0.176,0.1737,0.1756,0.1759,0.1739,0.178,0.1777,0.1806,0.1831,0.1813,0.1835,0.1842,0.1838,0.1866,0.1816,0.183,0.1863,0.191,0.1838,0.1814,0.1804,0.1943,0.1944,0.1946,0.1947,0,0,0.163,0.1675,0.1666,0.1676,0.1705,0.1699,0.1683,0.1691,0.1687,0.17,0.1687,0.1684,0.1716,0.1722,0.1752,0.1735,0.1671,0.1771,0.1772,0.1751,0.1618,0.1591,0.1579,0.1695,0.1693,0.1692,0.1616,0,0.155,0.1525,0.1565,0.153,0.1524,0.1579,0.1565,0.1581,0.1604,0.1602,0.1627,0.1624,0.1666,0.167,0.1656,0.1682,0.1645,0.1688,0.1683,0.1682,0.1676,0.1566,0.1538,0.1465,0.1607,0.1605,0.1604,0,0.1453,0.1462,0.1427,0.1459,0.1458,0.1444,0.1455,0.1452,0.1472,0.149,0.1498,0.1534,0.152,0.1566,0.1548,0.1577,0.1577,0.159,0.1588,0.1588,0.1638,0.1563,0.1443,0.1431,0.159,0.1591,0.1592,0,0.1355,0.1359,0.1339,0.1346,0.1383,0.1372,0.1387,0.1409,0.1411,0.1421,0.1423,0.143,0.1434,0.1439,0.1476,0.1506,0.1453,0.1502,0.1467,0.1466,0.1452,0.1453,0.133,0.1454,0.1454,0.1455,0.1455,0,0.1261,0.1238,0.1296,0.1283,0.1259,0.1305,0.128,0.13,0.132,0.1312,0.136,0.1352,0.1403,0.14,0.1429,0.141,0.1411,0.1425,0.1433,0.142,0.1418,0.142,0.1426,0.1452,0.1452,0.1453,0.1453,0,0.1148,0.1186,0.1167,0.1205,0.1214,0.1194,0.1226,0.1216,0.1243,0.1232,0.1233,0.1274,0.1274,0.1312,0.1319,0.1339,0.1306,0.1324,0.13,0.1305,0.1268,0.127,0.1141,0.1127,0.1261,0.1259,0.1258,0,0.1085,0.1068,0.1104,0.1103,0.1116,0.1113,0.1116,0.1162,0.1163,0.1186,0.1173,0.1176,0.1182,0.1178,0.1209,0.1215,0.1232,0.1187,0.1233,0.1221,0.1231,0.1231,0.1229,0.1176,0.1174,0.1173,0.1172,0,0.0968,0.0989,0.0992,0.1001,0.1004,0.1014,0.1026,0.1022,0.1073,0.1072,0.1072,0.1076,0.1085,0.1087,0.1099,0.1115,0.1151,0.1158,0.115,0.1136,0.1122,0.1129,0.1272,0.116,0.1161,0.1162,0.1163,0.1163,0.0878,0.0866,0.089,0.0892,0.0907,0.0918,0.0911,0.0937,0.0939,0.0949,0.0977,0.0973,0.0994,0.1014,0.1026,0.1024,0.1046,0.1035,0.1032,0.1028,0.1021,0.1124,0.1026,0.1027,0.1027,0.1027,0.1028,0,0.0764,0.0783,0.0784,0.0801,0.0803,0.0839,0.0855,0.0854,0.085,0.0868,0.0873,0.0873,0.0877,0.0909,0.0916,0.0908,0.0925,0.0908,0.0909,0.0911,0.1,0.1006,0.0894,0.0894,0.0894,0.0894,0.0894,0.0894,0.0705,0.0687,0.071,0.07,0.0719,0.0716,0.0722,0.0733,0.0747,0.0747,0.075,0.0771,0.0794,0.0804,0.0809,0.0818,0.0818,0.0796,0.081,0.0892,0.0905,0.0917,0.0923,0.0795,0.0795,0.0722,0.0721,0.072]}]]